CW6963 Weather Reports


time (UTC)temp
C
wind
direction
speed
KPH
gust
KPH
rain 1hr
cm
rain 24hr
cm
rain mn
cm
humidity
%
barometer
mb
20260504081543 5 235 0.0 1.6 0.00 0.00 0.00 71 1014.6
20260504044525 8 252 0.0 3.2 0.00 0.00 0.00 59 1014.5
20260504043056 9 241 1.6 8.0 0.00 0.00 0.00 57 1014.5
20260504041525 9 249 1.6 8.0 0.00 0.00 0.00 56 1014.3
20260504034526 9 229 1.6 11.3 0.00 0.00 0.00 55 1013.9
20260504033028 9 241 3.2 8.0 0.00 0.00 0.00 56 1013.9
20260504031534 8 253 1.6 6.4 0.00 0.00 0.00 57 1013.8
20260504030032 9 238 0.0 3.2 0.00 0.00 0.00 57 1013.8
20260504024536 9 258 0.0 3.2 0.00 0.00 0.00 55 1013.7
20260504023031 9 258 0.0 8.0 0.00 0.00 0.00 55 1013.8
20260504021533 9 233 1.6 3.2 0.00 0.00 0.00 56 1013.7
20260504020036 9 239 0.0 1.6 0.00 0.00 0.00 57 1013.7
20260504014538 10 239 0.0 3.2 0.00 0.00 0.00 53 1013.7
20260504013042 11 239 1.6 6.4 0.00 0.00 0.00 51 1013.6
20260504011548 11 232 1.6 6.4 0.00 0.00 0.00 49 1013.5
20260504010047 11 222 3.2 8.0 0.00 0.00 0.00 48 1013.4
20260504004616 11 233 0.0 3.2 0.00 0.00 0.00 48 1013.1
20260504003053 12 220 1.6 11.3 0.00 0.00 0.00 47 1012.9
20260504001558 12 236 1.6 3.2 0.00 0.00 0.00 46 1012.7
20260504000041 13 274 1.6 4.8 0.00 0.00 0.00 44 1012.5
20260503234543 13 277 1.6 11.3 0.00 0.00 0.00 43 1012.4
20260503233043 13 293 1.6 9.7 0.00 0.00 0.00 41 1012.3
20260503231548 14 212 4.8 19.3 0.00 0.00 0.00 40 1012.2
20260503230025 14 264 6.4 14.5 0.00 0.00 0.00 39 1012.3
20260503224542 15 279 8.0 16.1 0.00 0.00 0.00 38 1012.2
20260503223027 15 300 6.4 16.1 0.00 0.00 0.00 39 1012.1
20260503221533 15 320 8.0 20.9 0.00 0.00 0.00 38 1012.2
20260503220047 14 314 4.8 19.3 0.00 0.00 0.00 39 1012.1
20260503214541 15 195 6.4 22.5 0.00 0.00 0.00 38 1012.0
20260503213044 15 312 8.0 29.0 0.00 0.00 0.00 37 1012.0
20260503211544 15 320 8.0 22.5 0.00 0.00 0.00 38 1011.8
20260503210046 15 282 11.3 25.7 0.00 0.00 0.00 36 1011.9
20260503204530 14 289 6.4 17.7 0.00 0.00 0.00 39 1012.0
20260503203046 14 332 11.3 22.5 0.00 0.00 0.00 38 1012.1
20260503201543 13 341 8.0 25.7 0.00 0.00 0.00 39 1012.2
20260503200045 13 345 14.5 24.1 0.00 0.00 0.00 40 1012.4
20260503194546 13 360 8.0 19.3 0.00 0.00 0.00 43 1012.5
20260503193049 13 340 12.9 25.7 0.00 0.00 0.00 41 1012.7
20260503191540 13 335 12.9 20.9 0.00 0.00 0.00 40 1012.8
20260503190041 13 329 12.9 30.6 0.00 0.00 0.00 39 1013.0
20260503184538 12 349 12.9 24.1 0.00 0.00 0.00 41 1013.1
20260503183036 12 304 11.3 20.9 0.00 0.00 0.00 43 1013.2
20260503181618 12 301 12.9 25.7 0.00 0.00 0.00 42 1013.3
20260503180057 12 274 12.9 25.7 0.00 0.00 0.00 40 1013.4
20260503174554 12 360 9.7 25.7 0.00 0.00 0.00 44 1013.2
20260503173052 11 299 9.7 22.5 0.00 0.00 0.00 43 1013.6
20260503171551 11 348 8.0 20.9 0.00 0.00 0.00 45 1013.6